Location: Courcelles
(49.2596°N, 1.7419°E)
Time: 00:49:23
(UTC+00:00)

AQUARIUS - Pass Details

Date: 17 November 2025
Orbit: 634 x 636 km, 98.0° (Epoch: 05 December)

Event Time Altitude Azimuth Distance (km) Brightness Sun altitude
Rises 17:20:14 0° 158° (SSE) 2,922 7.5 -11.6°
Reaches altitude 10° 17:22:26 10° 157° (SSE) 2,018 6.6 -11.9°
Maximum altitude 17:26:48 72° 74° (ENE) 673 4.0 -12.6°
Drops below altitude 10° 17:31:13 10° 350° (N) 2,032 6.7 -13.3°
Sets 17:33:26 0° 348° (NNW) 2,945 7.5 -13.7°
